Location: *
(55.5817°S, 142.4781°W)
Time: 07:33:09
(UTC+00:00)

Cosmos 1953 - Pass Details

Date: 29 April 2025
Orbit: 484 x 504 km, 82.5° (Epoch: 23 May)

Event Time Altitude Azimuth Distance (km) Brightness Sun altitude
Rises 15:41:47 0° 331° (NNW) 2,584 5.6 -10.0°
Reaches altitude 10° 15:43:57 10° 324° (NW) 1,713 4.6 -9.7°
Maximum altitude 15:47:32 42° 251° (WSW) 741 2.5 -9.3°
Drops below altitude 10° 15:51:12 10° 179° (S) 1,749 4.8 -8.7°
Sets 15:53:27 0° 172° (S) 2,646 5.8 -8.4°
